FW7622 Weather Reports


Display with metric or nautical units.
time (UTC)temp
F
wind
direction
speed
MPH
gust
MPH
rain 1hr
in
rain 24hr
in
rain mn
in
humidity
%
barometer
mb
20260509135347 50 166 1.0 1.0 0.00 0.11 0.11 91 1003.7
20260509134844 49 318 2.0 5.0 0.00 0.11 0.11 91 1003.4
20260509134341 49 167 0.0 0.0 0.00 0.11 0.11 96 1003.4
20260509133837 48 351 2.0 3.0 0.00 0.11 0.11 99 1003.4
20260509133335 47 169 0.0 1.0 0.00 0.11 0.11 99 1003.4
20260509132834 48 103 2.0 3.0 0.00 0.11 0.11 99 1003.1
20260509132331 47 152 1.0 2.0 0.00 0.11 0.11 99 1003.4
20260509131828 47 274 3.0 5.0 0.00 0.11 0.11 99 1003.4
20260509131325 47 301 3.0 3.0 0.00 0.11 0.11 99 1003.1
20260509130821 47 72 0.0 1.0 0.00 0.11 0.11 99 1003.1
20260509130317 47 169 1.0 1.0 0.00 0.11 0.11 99 1003.1
20260509125814 46 160 0.0 0.0 0.00 0.11 0.11 99 1003.1
20260509125310 46 323 3.0 3.0 0.00 0.11 0.11 99 1003.1
20260509124807 46 353 2.0 3.0 0.00 0.11 0.11 99 1003.1
20260509124303 46 180 2.0 3.0 0.00 0.11 0.11 99 1003.1
20260509123802 46 306 4.0 6.0 0.00 0.11 0.11 99 1003.1
20260509123259 45 159 0.0 0.0 0.00 0.11 0.11 99 1002.7
20260509122754 45 173 0.0 1.0 0.01 0.11 0.11 99 1002.7
20260509122251 45 167 0.0 0.0 0.04 0.11 0.11 99 1002.7
20260509121748 45 187 0.0 1.0 0.06 0.11 0.11 99 1002.7
20260509121245 45 175 0.0 0.0 0.08 0.11 0.11 99 1002.7
20260509120744 44 175 0.0 0.0 0.10 0.11 0.11 99 1002.4
20260509120241 44 162 0.0 0.0 0.11 0.11 0.11 99 1002.4
20260509115739 44 172 0.0 0.0 0.11 0.11 0.11 99 1002.1
20260509115235 44 174 0.0 0.0 0.11 0.11 0.11 99 1002.1
20260509114734 44 165 0.0 0.0 0.11 0.11 0.11 99 1002.4
20260509114232 44 169 0.0 1.0 0.11 0.11 0.11 99 1002.1
20260509113731 44 174 0.0 0.0 0.11 0.11 0.11 99 1001.7
20260509113227 45 161 1.0 1.0 0.10 0.10 0.10 99 1001.7
20260509112724 45 161 0.0 0.0 0.07 0.07 0.07 97 1002.1
20260509112221 45 169 0.0 0.0 0.05 0.05 0.05 96 1002.1
20260509111718 45 160 0.0 1.0 0.02 0.02 0.02 94 1002.1
20260509111215 46 180 0.0 0.0 0.01 0.01 0.01 93 1002.1
20260509110713 46 161 0.0 0.0 0.00 0.00 0.00 90 1001.7
20260509110209 46 154 1.0 1.0 0.00 0.00 0.00 88 1001.4
20260509105707 47 157 0.0 0.0 0.00 0.00 0.00 85 1001.4
20260509105204 47 258 1.0 2.0 0.00 0.00 0.00 83 1001.4
20260509104701 48 197 0.0 1.0 0.00 0.00 0.00 81 1001.7
20260509104158 48 132 1.0 1.0 0.00 0.00 0.00 78 1001.4
20260509103656 49 139 0.0 0.0 0.00 0.00 0.00 76 1001.4
20260509103153 49 137 0.0 1.0 0.00 0.00 0.00 73 1001.7
20260509102651 48 179 0.0 0.0 0.00 0.00 0.00 72 1001.7
20260509102148 48 172 2.0 2.0 0.00 0.00 0.00 70 1001.7
20260509101644 47 172 0.0 1.0 0.00 0.00 0.00 70 1001.7
20260509101141 46 176 0.0 0.0 0.00 0.00 0.00 70 1002.1
20260509100638 44 204 1.0 2.0 0.00 0.00 0.00 72 1001.4
20260509100135 42 178 2.0 2.0 0.00 0.00 0.00 79 1001.7
20260509095632 41 169 0.0 0.0 0.00 0.00 0.00 81 1001.4
20260509095129 41 169 0.0 0.0 0.00 0.00 0.00 81 1001.4
20260509094625 41 168 0.0 0.0 0.00 0.00 0.00 82 1001.4
20260509094123 41 168 0.0 0.0 0.00 0.00 0.00 80 1001.4
20260509093621 41 168 0.0 0.0 0.00 0.00 0.00 79 1001.0
20260509093118 41 171 0.0 0.0 0.00 0.00 0.00 79 1001.0
20260509092616 42 170 1.0 1.0 0.00 0.00 0.00 78 1001.4
20260509092114 42 161 0.0 0.0 0.00 0.00 0.00 77 1000.3
20260509091612 42 162 0.0 0.0 0.00 0.00 0.00 76 1000.7
20260509091108 42 157 0.0 0.0 0.00 0.00 0.00 77 1000.7
20260509090606 42 157 0.0 0.0 0.00 0.00 0.00 76 1000.7
20260509085600 42 158 0.0 0.0 0.00 0.00 0.00 76 1000.7
20260509085056 42 157 0.0 0.0 0.00 0.00 0.00 76 1001.0
20260509084553 41 157 0.0 1.0 0.00 0.00 0.00 76 1001.0
20260509084050 41 158 0.0 0.0 0.00 0.00 0.00 76 1000.7
20260509083548 41 158 0.0 0.0 0.00 0.00 0.00 76 1001.0
20260509083044 41 158 0.0 0.0 0.00 0.00 0.00 76 1000.7
20260509082542 41 157 0.0 0.0 0.00 0.00 0.00 77 1000.7
20260509082039 41 158 0.0 0.0 0.00 0.00 0.00 76 1001.0
20260509081536 41 157 0.0 0.0 0.00 0.00 0.00 76 1000.7
20260509081032 41 161 0.0 0.0 0.00 0.00 0.00 77 1000.3
20260509080531 41 162 0.0 0.0 0.00 0.00 0.00 78 1000.7
20260509080029 41 161 0.0 0.0 0.00 0.00 0.00 76 1000.7
20260509075525 41 161 0.0 0.0 0.00 0.00 0.00 75 1000.7
20260509075023 41 161 0.0 0.0 0.00 0.00 0.00 75 1000.3
20260509074520 41 161 0.0 0.0 0.00 0.00 0.00 74 1000.3
20260509074017 42 144 0.0 0.0 0.00 0.00 0.00 74 1000.3
20260509073513 42 162 0.0 0.0 0.00 0.00 0.00 73 1000.7
20260509073010 42 166 0.0 0.0 0.00 0.00 0.00 73 1000.7
20260509072506 42 166 0.0 0.0 0.00 0.00 0.00 71 1001.0
20260509072003 43 163 0.0 0.0 0.00 0.00 0.00 71 1000.3
20260509071500 43 152 0.0 0.0 0.00 0.00 0.00 71 1001.0
20260509070957 43 147 0.0 1.0 0.00 0.00 0.00 70 1000.7
20260509070454 43 145 1.0 1.0 0.00 0.00 0.00 68 1000.7
20260509065950 43 153 0.0 1.0 0.00 0.00 0.00 68 1001.0
20260509065446 44 135 1.0 1.0 0.00 0.00 0.00 68 1001.0
20260509064942 44 150 0.0 0.0 0.00 0.00 0.00 69 1001.0
20260509064440 44 179 0.0 0.0 0.00 0.00 0.00 67 1001.0
20260509063938 46 179 0.0 0.0 0.00 0.00 0.00 67 1001.0
20260509063433 47 179 0.0 0.0 0.00 0.00 0.00 62 1001.4
20260509062930 48 179 0.0 0.0 0.00 0.00 0.00 59 1001.0
20260509062428 49 180 0.0 1.0 0.00 0.00 0.00 57 1001.4
20260509061925 48 179 0.0 1.0 0.00 0.00 0.00 58 1001.0
20260509061422 48 179 0.0 0.0 0.00 0.00 0.00 58 1001.4
20260509060919 48 179 1.0 1.0 0.00 0.00 0.00 58 1001.0
20260509060417 49 180 0.0 0.0 0.00 0.00 0.00 56 1001.4
20260509055911 50 176 0.0 1.0 0.00 0.00 0.00 55 1001.0
20260509055407 50 172 0.0 0.0 0.00 0.00 0.00 55 1001.0
20260509054904 51 172 0.0 0.0 0.00 0.00 0.00 53 1001.4
20260509054401 52 171 0.0 1.0 0.00 0.00 0.00 52 1001.0
20260509053859 52 174 0.0 0.0 0.00 0.00 0.00 51 1001.4
20260509053356 53 164 0.0 0.0 0.00 0.00 0.00 51 1001.0
20260509052854 53 173 0.0 1.0 0.00 0.00 0.00 50 1001.4
20260509052351 53 163 0.0 0.0 0.00 0.00 0.00 51 1001.4
20260509051849 53 170 1.0 1.0 0.00 0.00 0.00 51 1001.4
20260509051347 53 197 1.0 2.0 0.00 0.00 0.00 52 1001.4
20260509050843 52 162 0.0 0.0 0.00 0.00 0.00 53 1001.4
20260509050340 52 172 0.0 0.0 0.00 0.00 0.00 53 1001.4
20260509045837 52 163 1.0 1.0 0.00 0.00 0.00 53 1001.0
20260509045334 51 193 1.0 1.0 0.00 0.00 0.00 55 1001.4
20260509044831 51 193 1.0 1.0 0.00 0.00 0.00 55 1000.7
20260509044329 51 193 1.0 1.0 0.00 0.00 0.00 55 1001.0
20260509043825 51 193 1.0 1.0 0.00 0.00 0.00 55 1001.0
20260509043321 51 175 0.0 0.0 0.00 0.00 0.00 57 1001.0
20260509042817 51 185 0.0 0.0 0.00 0.00 0.00 57 1001.0
20260509042314 51 174 0.0 1.0 0.00 0.00 0.00 57 1000.7
20260509041810 51 174 0.0 0.0 0.00 0.00 0.00 57 1000.7
20260509041308 51 173 0.0 0.0 0.00 0.00 0.00 57 1000.7
20260509040806 51 178 0.0 1.0 0.00 0.00 0.00 57 1000.7
20260509040303 50 175 0.0 1.0 0.00 0.00 0.00 59 1000.7
20260509035800 48 175 0.0 0.0 0.00 0.00 0.00 62 1000.7
20260509035257 46 172 1.0 1.0 0.00 0.00 0.00 67 1000.7
20260509034753 45 161 0.0 0.0 0.00 0.00 0.00 70 1000.7
20260509034251 45 159 0.0 0.0 0.00 0.00 0.00 69 1000.7
20260509033748 45 164 0.0 0.0 0.00 0.00 0.00 69 1000.7
20260509033245 46 240 2.0 2.0 0.00 0.00 0.00 68 1000.7
20260509032742 46 167 0.0 0.0 0.00 0.00 0.00 68 1000.7
20260509032239 47 169 0.0 0.0 0.00 0.00 0.00 66 1000.3
20260509031736 47 164 0.0 0.0 0.00 0.00 0.00 65 1000.3
20260509031234 48 159 0.0 0.0 0.00 0.00 0.00 63 1000.3
20260509030731 49 159 0.0 0.0 0.00 0.00 0.00 62 1000.3
20260509030229 49 159 0.0 0.0 0.00 0.00 0.00 61 1000.3
20260509025726 50 159 0.0 0.0 0.00 0.00 0.00 61 1000.3
20260509025221 50 160 0.0 0.0 0.00 0.00 0.00 61 1000.3
20260509024717 51 160 0.0 0.0 0.00 0.00 0.00 60 1000.3
20260509024212 51 160 0.0 0.0 0.00 0.00 0.00 59 1000.3
20260509023710 51 160 0.0 0.0 0.00 0.00 0.00 59 1000.3
20260509023207 52 159 0.0 0.0 0.00 0.00 0.00 58 999.9
20260509022703 52 149 0.0 0.0 0.00 0.00 0.00 56 1000.3
20260509022201 52 148 0.0 1.0 0.00 0.00 0.00 55 1000.3
20260509021658 53 154 0.0 0.0 0.00 0.00 0.00 54 999.9
20260509021155 53 156 0.0 0.0 0.00 0.00 0.00 53 1000.3
20260509020653 53 157 0.0 0.0 0.00 0.00 0.00 54 1000.3
20260509020150 53 157 0.0 0.0 0.00 0.00 0.00 53 1000.3
20260509015648 54 156 0.0 0.0 0.00 0.00 0.00 52 999.9
20260509015146 54 154 0.0 0.0 0.00 0.00 0.00 51 999.9
20260509014642 55 150 0.0 1.0 0.00 0.00 0.00 50 999.9
20260509014139 55 161 0.0 0.0 0.00 0.00 0.00 49 999.9
20260509013636 55 161 0.0 0.0 0.00 0.00 0.00 51 999.9
20260509013131 56 161 0.0 0.0 0.00 0.00 0.00 49 999.9
20260509012628 57 161 0.0 0.0 0.00 0.00 0.00 48 999.9
20260509012125 57 161 0.0 1.0 0.00 0.00 0.00 48 1000.3
20260509011623 58 164 0.0 0.0 0.00 0.00 0.00 48 999.9
20260509011120 59 174 0.0 0.0 0.00 0.00 0.00 45 1000.3
20260509010618 60 158 0.0 0.0 0.00 0.00 0.00 44 999.9
20260509010114 61 165 0.0 0.0 0.00 0.00 0.00 42 999.9
20260509005612 61 161 0.0 0.0 0.00 0.00 0.00 42 999.9
20260509005107 62 166 0.0 0.0 0.00 0.00 0.00 40 999.9
20260509004604 63 166 0.0 0.0 0.00 0.00 0.00 39 1000.3
20260509004101 63 166 0.0 0.0 0.00 0.00 0.00 37 999.9
20260509003559 64 165 0.0 0.0 0.00 0.00 0.00 37 999.9
20260509003056 65 171 0.0 0.0 0.00 0.00 0.00 35 1000.3
20260509002554 65 158 0.0 0.0 0.00 0.00 0.00 34 1000.3
20260509002051 66 92 0.0 1.0 0.00 0.00 0.00 34 1000.3
20260509001548 66 172 0.0 0.0 0.00 0.00 0.00 35 1000.3
20260509001044 66 166 0.0 0.0 0.00 0.00 0.00 35 999.9
20260509000543 66 166 0.0 1.0 0.00 0.00 0.00 35 1000.3
20260509000038 66 182 0.0 1.0 0.00 0.00 0.00 34 1000.3
20260508235536 66 181 0.0 1.0 0.00 0.00 0.00 33 1000.3
20260508235032 66 167 0.0 0.0 0.00 0.00 0.00 34 1000.3
20260508234530 67 143 0.0 0.0 0.00 0.00 0.00 34 1000.3
20260508234027 68 167 0.0 0.0 0.00 0.00 0.00 33 1000.3
20260508233526 67 150 1.0 1.0 0.00 0.00 0.00 33 1000.3
20260508233023 67 208 1.0 2.0 0.00 0.00 0.00 33 1000.3
20260508232520 68 254 1.0 2.0 0.00 0.00 0.00 32 1000.7
20260508232017 68 187 1.0 1.0 0.00 0.00 0.00 32 1000.7
20260508231514 69 182 1.0 1.0 0.00 0.00 0.00 32 1001.0
20260508231011 69 242 1.0 2.0 0.00 0.00 0.00 32 1000.7
20260508230508 69 209 1.0 1.0 0.00 0.00 0.00 31 1000.7
20260508230005 70 180 2.0 2.0 0.00 0.00 0.00 31 1000.7
20260508225502 70 139 1.0 2.0 0.00 0.00 0.00 32 1000.7
20260508224959 70 324 3.0 5.0 0.00 0.00 0.00 31 1000.7
20260508224456 70 352 4.0 6.0 0.00 0.00 0.00 32 1000.7
20260508223953 69 186 4.0 6.0 0.00 0.00 0.00 31 1001.0
20260508223451 69 158 1.0 1.0 0.00 0.00 0.00 32 1001.0
20260508222948 69 178 2.0 2.0 0.00 0.00 0.00 33 1001.0
20260508222446 67 285 6.0 7.0 0.00 0.00 0.00 33 1001.4
20260508221942 67 177 1.0 1.0 0.00 0.00 0.00 33 1001.0
20260508221438 68 333 5.0 6.0 0.00 0.00 0.00 34 1001.4
20260508220934 69 170 1.0 1.0 0.00 0.00 0.00 32 1001.4
20260508220431 70 178 0.0 1.0 0.00 0.00 0.00 30 1001.4
20260508215927 69 188 0.0 1.0 0.00 0.00 0.00 32 1001.4
20260508215425 68 166 0.0 0.0 0.00 0.00 0.00 35 1001.7
20260508214921 67 116 1.0 2.0 0.00 0.00 0.00 33 1001.4
20260508214419 67 221 3.0 3.0 0.00 0.00 0.00 33 1001.4
20260508213914 69 181 3.0 3.0 0.00 0.00 0.00 32 1001.4
20260508213412 68 228 3.0 3.0 0.00 0.00 0.00 32 1001.7
20260508212907 67 194 1.0 3.0 0.00 0.00 0.00 33 1002.1
20260508212404 67 254 3.0 3.0 0.00 0.00 0.00 34 1001.7
20260508211900 69 167 2.0 3.0 0.00 0.00 0.00 33 1001.7
20260508211356 69 103 5.0 7.0 0.00 0.00 0.00 32 1002.1
20260508210854 66 170 0.0 0.0 0.00 0.00 0.00 36 1002.1
20260508210350 66 217 4.0 7.0 0.00 0.00 0.00 32 1001.7
20260508205846 68 162 0.0 0.0 0.00 0.00 0.00 32 1001.7
20260508205343 69 232 3.0 5.0 0.00 0.00 0.00 32 1001.7
20260508204839 67 243 2.0 2.0 0.00 0.00 0.00 34 1002.1
20260508204337 67 256 2.0 2.0 0.00 0.00 0.00 37 1002.4
20260508203832 66 169 0.0 1.0 0.00 0.00 0.00 34 1002.4
20260508203329 67 155 0.0 1.0 0.00 0.00 0.00 34 1002.4
20260508202824 67 251 3.0 5.0 0.00 0.00 0.00 33 1002.7
20260508202322 68 185 3.0 5.0 0.00 0.00 0.00 33 1002.4
20260508201819 66 180 1.0 1.0 0.00 0.00 0.00 33 1002.4
20260508201316 67 200 3.0 5.0 0.00 0.00 0.00 33 1002.7
20260508200812 66 166 1.0 1.0 0.00 0.00 0.00 34 1002.7
20260508200309 67 193 2.0 2.0 0.00 0.00 0.00 32 1002.7
20260508195805 67 189 2.0 2.0 0.00 0.00 0.00 33 1002.7
20260508195305 66 189 2.0 3.0 0.00 0.00 0.00 34 1002.7
20260508194758 67 213 3.0 6.0 0.00 0.00 0.00 33 1002.7
20260508194255 67 129 5.0 8.0 0.00 0.00 0.00 34 1003.1
20260508193753 66 234 5.0 6.0 0.00 0.00 0.00 34 1003.1
20260508193249 66 188 3.0 3.0 0.00 0.00 0.00 33 1003.1
20260508192745 66 244 4.0 6.0 0.00 0.00 0.00 32 1003.1
20260508192243 68 332 4.0 5.0 0.00 0.00 0.00 31 1003.1
20260508191740 68 237 4.0 6.0 0.00 0.00 0.00 31 1003.1
20260508191237 67 40 1.0 2.0 0.00 0.00 0.00 35 1003.1
20260508190734 65 211 3.0 3.0 0.00 0.00 0.00 32 1003.4
20260508190230 67 217 6.0 8.0 0.00 0.00 0.00 31 1003.1
20260508185727 67 245 3.0 5.0 0.00 0.00 0.00 31 1003.4
20260508185224 67 255 3.0 6.0 0.00 0.00 0.00 33 1003.4
20260508184721 66 239 3.0 3.0 0.00 0.00 0.00 33 1003.4
20260508184218 66 210 5.0 6.0 0.00 0.00 0.00 32 1003.4
20260508183715 66 20 4.0 5.0 0.00 0.00 0.00 34 1003.7
20260508183211 65 199 4.0 5.0 0.00 0.00 0.00 32 1003.7
20260508182707 64 183 2.0 3.0 0.00 0.00 0.00 33 1004.2
20260508182204 66 168 2.0 5.0 0.00 0.00 0.00 33 1004.2
20260508181700 66 147 2.0 3.0 0.00 0.00 0.00 36 1004.2
20260508181157 65 160 6.0 8.0 0.00 0.00 0.00 34 1004.2
20260508180654 64 144 2.0 2.0 0.00 0.00 0.00 37 1004.5
20260508180151 63 180 3.0 3.0 0.00 0.00 0.00 37 1004.9
20260508175647 63 195 3.0 5.0 0.00 0.00 0.00 35 1004.5
20260508175144 64 213 3.0 3.0 0.00 0.00 0.00 35 1004.9
20260508174642 65 332 3.0 6.0 0.00 0.00 0.00 35 1004.9
20260508174138 63 27 2.0 3.0 0.00 0.00 0.00 42 1004.9
20260508173635 62 183 1.0 1.0 0.00 0.00 0.00 39 1005.2
20260508173131 63 216 0.0 1.0 0.00 0.00 0.00 39 1005.2
20260508172628 62 200 2.0 2.0 0.00 0.00 0.00 38 1005.2
20260508172125 62 209 3.0 3.0 0.00 0.00 0.00 38 1005.2
20260508171621 62 178 2.0 3.0 0.00 0.00 0.00 39 1005.2
20260508171118 61 172 0.0 1.0 0.00 0.00 0.00 38 1005.5
20260508170615 61 272 2.0 2.0 0.00 0.00 0.00 39 1005.2
20260508170113 62 131 1.0 1.0 0.00 0.00 0.00 38 1005.5
20260508165610 61 185 2.0 2.0 0.00 0.00 0.00 38 1005.5
20260508165107 61 186 1.0 1.0 0.00 0.00 0.00 42 1005.5
20260508164603 60 164 3.0 3.0 0.00 0.00 0.00 38 1005.9
20260508164100 60 193 1.0 2.0 0.00 0.00 0.00 39 1005.5
20260508163557 60 196 3.0 6.0 0.00 0.00 0.00 38 1005.9
20260508163054 60 231 5.0 6.0 0.00 0.00 0.00 38 1005.5
20260508162551 61 224 4.0 5.0 0.00 0.00 0.00 37 1005.9
20260508162048 61 223 4.0 6.0 0.00 0.00 0.00 37 1005.9
20260508161545 62 178 2.0 2.0 0.00 0.00 0.00 38 1006.2
20260508161042 62 184 6.0 7.0 0.00 0.00 0.00 37 1005.9
20260508160540 61 172 3.0 3.0 0.00 0.00 0.00 37 1005.9
20260508160037 60 237 1.0 1.0 0.00 0.00 0.00 39 1006.2
20260508155534 60 245 3.0 3.0 0.00 0.00 0.00 40 1006.2
20260508155031 61 211 2.0 2.0 0.00 0.00 0.00 39 1006.2
20260508154528 63 189 2.0 3.0 0.00 0.00 0.00 37 1006.2
20260508154025 62 239 3.0 3.0 0.00 0.00 0.00 39 1006.2
20260508153522 61 278 3.0 3.0 0.00 0.00 0.00 41 1006.2
20260508153018 60 195 0.0 1.0 0.00 0.00 0.00 39 1006.2
20260508152515 59 117 3.0 3.0 0.00 0.00 0.00 40 1006.6
20260508152011 58 244 1.0 2.0 0.00 0.00 0.00 45 1006.6
20260508151508 59 168 0.0 0.0 0.00 0.00 0.00 43 1006.6
20260508151004 58 310 3.0 3.0 0.00 0.00 0.00 41 1006.9
20260508150502 57 320 4.0 5.0 0.00 0.00 0.00 42 1006.6
20260508145956 57 279 2.0 2.0 0.00 0.00 0.00 43 1006.9
20260508145454 56 239 1.0 2.0 0.00 0.00 0.00 45 1006.9
20260508144950 55 191 2.0 2.0 0.00 0.00 0.00 43 1006.9
20260508144448 56 349 2.0 2.0 0.00 0.00 0.00 43 1006.9
20260508143945 55 177 3.0 3.0 0.00 0.00 0.00 45 1006.9
20260508143443 55 175 1.0 1.0 0.00 0.00 0.00 46 1006.9
20260508142939 54 176 1.0 2.0 0.00 0.00 0.00 46 1006.9
20260508142436 54 204 2.0 2.0 0.00 0.00 0.00 46 1007.2
20260508141932 54 174 1.0 1.0 0.00 0.00 0.00 45 1007.2
20260508141429 53 174 0.0 0.0 0.00 0.00 0.00 45 1007.2
20260508140927 53 176 1.0 1.0 0.00 0.00 0.00 47 1007.2
20260508140424 52 188 1.0 1.0 0.00 0.00 0.00 46 1007.2
20260508135919 51 127 1.0 1.0 0.00 0.00 0.00 47 1007.7